Time+08,TemperatureF,Dew PointF,Humidity,Sea Level PressureIn,VisibilityMPH,Wind Direction,Wind SpeedMPH,Gust SpeedMPH,PrecipitationIn,Events,Conditions,WindDirDegrees,DateUTC
1:00 AM,78.8,77.0,94,29.83,6.2,NE,1.2,-,N/A,,Mostly Cloudy,50,2012-10-12 17:00:00
2:00 AM,78.8,77.0,94,29.83,6.2,Calm,Calm,-,N/A,,Mostly Cloudy,0,2012-10-12 18:00:00
3:00 AM,78.8,77.0,94,29.80,6.2,Calm,Calm,-,N/A,,Mostly Cloudy,0,2012-10-12 19:00:00
4:00 AM,77.0,77.0,100,29.77,6.2,Calm,Calm,-,N/A,,Mostly Cloudy,0,2012-10-12 20:00:00
5:00 AM,77.0,77.0,100,29.77,6.2,Calm,Calm,-,N/A,,Mostly Cloudy,0,2012-10-12 21:00:00
7:00 AM,77.0,75.2,94,29.80,4.3,NNE,1.2,-,N/A,,Mostly Cloudy,30,2012-10-12 23:00:00
8:00 AM,77.0,75.2,94,29.83,4.3,NNE,1.2,-,N/A,,Mostly Cloudy,20,2012-10-13 00:00:00
9:00 AM,78.8,77.0,94,29.86,6.2,NE,2.3,-,N/A,,Mostly Cloudy,50,2012-10-13 01:00:00
10:00 AM,82.4,78.8,89,29.86,6.2,East,3.5,-,N/A,,Mostly Cloudy,80,2012-10-13 02:00:00
11:00 AM,86.0,80.6,84,29.86,6.2,WSW,2.3,-,N/A,,Mostly Cloudy,250,2012-10-13 03:00:00
12:00 PM,86.0,80.6,84,29.86,6.2,South,3.5,-,N/A,,Mostly Cloudy,180,2012-10-13 04:00:00
1:00 PM,87.8,80.6,79,29.83,6.2,WSW,3.5,-,N/A,,Mostly Cloudy,240,2012-10-13 05:00:00
2:00 PM,89.6,80.6,75,29.77,6.2,WNW,3.5,-,N/A,,Mostly Cloudy,300,2012-10-13 06:00:00
3:00 PM,89.6,82.4,79,29.74,6.2,WNW,5.8,-,N/A,,Mostly Cloudy,290,2012-10-13 07:00:00
5:00 PM,86.0,80.6,84,29.74,6.2,West,10.4,-,N/A,,Mostly Cloudy,270,2012-10-13 09:00:00
6:00 PM,84.2,78.8,84,29.77,5.0,NW,2.3,-,N/A,Rain,Light Rain,320,2012-10-13 10:00:00
7:00 PM,77.0,75.2,94,29.83,4.3,ESE,6.9,-,N/A,Rain-Thunderstorm,Light Thunderstorms and Rain,110,2012-10-13 11:00:00
8:00 PM,75.2,73.4,94,29.83,6.2,East,4.6,-,N/A,Rain-Thunderstorm,Light Thunderstorms and Rain,100,2012-10-13 12:00:00
9:00 PM,73.4,71.6,94,29.86,4.3,ESE,5.8,-,N/A,Rain-Thunderstorm,Thunderstorms and Rain,120,2012-10-13 13:00:00
10:00 PM,75.2,73.4,94,29.89,6.2,East,3.5,-,N/A,Rain,Light Rain,100,2012-10-13 14:00:00
11:00 PM,75.2,73.4,94,29.89,6.2,ESE,2.3,-,N/A,Rain,Light Rain,110,2012-10-13 15:00:00